Theta_e
289 289 289 289 289 289 288 288 288 288 288 287 287 287 286 286 286 286 286 285 285 285 284 284 284 284 283 283 283 282 282 282 282 281 281 281 281 281 281 280 280 280 279 279 279 279 279 279 279 278 278 278 278 278 277 277 277 278 278 278 278 278 278 278 278 278 279 279 279 278 278 278 278 278 278 278 278 278 278 278 278 279 279 279 280
289 289 289 289 289 288 288 288 288 288 287 287 287 287 286 286 286 286 285 285 285 285 284 284 283 283 283 283 282 282 282 281 281 281 281 281 281 280 280 280 280 279 279 279 278 278 278 278 278 278 278 277 277 277 277 277 277 277 277 276 276 276 277 277 278 278 278 278 278 277 277 277 277 277 277 276 276 277 277 277 278 278 278 278 279
289 289 289 288 288 288 288 288 287 287 287 287 287 286 286 286 286 286 285 285 285 284 284 284 283 283 283 282 282 281 281 281 281 280 280 280 280 280 280 280 280 279 279 278 278 278 278 278 278 277 277 277 277 276 276 276 276 276 275 275 275 276 276 276 277 277 277 277 277 276 276 276 275 275 275 275 276 276 276 277 277 277 277 278 279
289 288 288 288 288 288 288 287 287 287 287 287 286 286 286 286 286 285 285 285 285 284 284 283 283 283 282 282 281 281 281 280 280 280 280 280 280 280 280 280 279 279 279 278 278 278 278 277 277 277 276 276 276 276 276 275 275 275 275 274 275 275 275 275 275 275 275 275 275 275 275 275 275 275 275 275 275 276 276 276 276 276 277 277 278
288 288 288 288 288 288 287 287 286 287 287 287 286 286 286 286 286 285 285 285 284 284 284 283 283 283 282 282 281 281 280 280 280 280 280 280 280 280 280 279 279 279 278 278 278 278 277 277 277 276 276 276 276 275 275 275 275 274 274 274 274 274 274 274 274 274 274 274 274 274 274 274 274 274 274 275 275 275 275 275 275 276 276 276 276
288 288 288 288 287 287 287 286 286 287 287 287 286 286 286 286 286 285 285 285 284 284 284 283 283 283 282 281 281 280 280 280 280 280 279 279 279 279 279 279 278 278 278 278 278 277 277 276 276 276 276 275 275 275 275 275 274 273 273 273 273 273 273 273 273 273 273 273 273 273 274 274 274 274 274 274 274 274 274 274 275 275 275 275 275
288 287 287 287 287 287 287 286 286 287 287 287 286 286 286 286 285 285 285 284 284 284 284 283 283 282 282 281 281 280 280 280 279 279 279 279 279 279 279 278 278 278 278 278 277 277 276 276 276 276 275 275 275 275 274 274 273 273 273 273 273 273 273 273 273 273 273 273 273 273 273 273 273 273 274 274 274 274 274 274 274 275 275 275 275
288 287 287 287 287 287 286 286 286 287 287 287 286 286 286 286 285 285 284 284 284 284 284 283 283 282 282 281 281 280 280 279 279 279 279 279 278 278 278 278 278 278 278 277 277 277 276 276 275 275 275 275 274 274 274 274 274 274 273 273 273 273 273 273 273 272 272 272 272 273 273 273 273 273 274 274 274 274 274 274 274 275 275 275 275
287 287 287 287 287 286 286 285 286 286 287 287 286 286 286 286 285 285 284 284 284 284 283 283 283 282 282 281 281 280 280 279 279 279 278 278 278 278 278 278 278 278 277 277 277 277 276 275 275 275 275 274 274 274 274 274 274 274 274 274 273 273 273 273 273 273 272 272 272 273 273 273 273 273 274 274 274 274 274 274 275 275 275 275 275
287 287 287 287 286 286 286 285 285 286 287 287 286 286 286 286 285 285 284 284 284 283 283 283 282 282 282 282 281 280 279 279 278 278 278 278 277 277 277 277 277 277 277 277 277 276 276 275 274 274 274 274 273 273 273 274 274 274 274 274 274 274 274 274 273 273 273 273 273 273 273 273 274 274 274 274 274 274 275 275 275 275 275 275 276
287 287 287 286 286 286 285 285 285 286 287 287 286 286 286 286 285 285 284 284 284 283 283 283 282 282 282 282 281 280 279 278 278 278 277 277 277 276 277 277 277 277 276 276 276 276 275 275 274 274 273 273 273 272 272 273 273 273 273 274 274 274 274 274 274 274 273 274 274 274 274 274 274 274 274 275 275 275 275 275 275 275 275 276 276
287 287 286 286 286 286 285 285 285 286 287 287 286 286 286 286 285 285 284 284 283 283 283 282 282 282 282 282 281 279 279 278 278 277 277 277 276 276 276 276 276 276 275 275 275 275 275 274 273 273 273 272 272 272 272 272 272 272 273 273 273 273 274 274 274 274 274 274 274 274 274 274 274 274 275 275 275 275 275 275 275 275 276 276 276
287 286 286 286 286 286 285 285 285 286 287 287 286 286 286 286 285 285 284 284 283 283 283 282 282 282 282 282 281 280 279 278 277 277 277 276 276 275 275 275 275 275 274 274 274 274 274 273 273 273 272 272 272 272 272 271 272 272 272 273 273 273 274 274 274 274 275 275 275 275 275 275 275 275 275 275 275 275 275 275 276 276 276 276 276
286 286 286 286 286 285 285 285 286 286 286 287 286 286 286 286 285 285 284 283 283 283 283 282 282 282 282 281 281 280 279 278 277 277 277 276 276 275 275 275 275 274 274 273 273 273 273 272 272 272 272 272 271 271 271 272 272 273 273 274 274 274 274 275 275 275 275 275 275 275 275 275 275 275 275 275 275 275 275 276 276 276 276 276 277
286 286 286 286 285 285 285 285 285 286 286 286 286 286 286 286 285 285 284 284 284 283 282 282 282 282 282 281 281 280 278 278 277 277 276 276 275 274 275 275 274 274 274 274 273 273 272 272 272 271 271 271 271 272 272 273 273 274 274 275 275 275 275 275 275 275 275 275 275 275 275 275 275 276 276 276 276 276 276 277 277 277 277 277 276
286 286 286 286 285 285 285 285 285 285 285 286 286 286 286 285 285 285 284 283 283 282 282 282 282 282 282 281 280 279 278 277 277 276 276 276 275 274 274 274 274 274 273 273 272 272 271 271 271 271 271 271 272 272 273 274 275 275 275 276 275 275 275 275 275 276 276 276 276 276 276 276 276 276 277 277 277 277 277 276 276 276 276 276 276
286 286 286 286 285 285 286 285 285 285 285 286 286 286 286 286 285 284 284 283 283 282 282 282 281 281 281 280 280 279 278 277 276 276 276 275 275 274 274 274 273 273 272 272 271 271 271 271 271 271 272 272 272 273 274 275 276 276 275 275 275 275 275 275 275 275 274 274 275 275 275 275 276 276 276 276 275 275 275 275 275 276 276 276 276
286 286 286 286 286 286 286 285 285 285 285 286 287 287 286 286 285 284 284 283 283 283 282 281 280 280 280 280 279 279 277 276 276 276 276 275 274 274 274 274 273 272 271 270 270 271 271 271 272 272 272 273 273 274 275 276 275 275 275 275 275 275 274 274 273 273 273 273 273 274 274 273 273 273 273 273 273 274 274 274 274 275 275 276 276
287 286 286 286 286 286 286 285 285 285 286 286 287 287 286 286 285 284 283 282 282 282 281 280 279 279 279 279 279 278 277 276 276 276 275 275 274 274 274 273 272 271 270 270 270 271 271 272 272 273 273 274 275 275 275 275 275 275 275 274 274 273 272 272 272 273 273 272 272 271 271 271 271 271 271 271 272 272 273 273 274 274 274 275 275
287 287 286 286 286 286 285 285 285 285 286 287 287 287 286 285 284 283 282 281 281 281 280 279 278 278 277 278 278 278 277 276 275 275 275 275 274 274 273 272 271 270 270 270 271 271 272 272 272 273 274 274 275 275 274 274 274 274 274 273 272 272 272 272 272 272 271 270 269 269 269 269 269 269 270 270 271 271 272 272 273 273 274 274 274
287 287 287 286 286 285 285 285 285 286 286 286 286 286 285 284 284 283 282 281 281 281 279 278 277 277 276 277 278 278 277 276 275 275 275 274 274 273 273 272 271 270 270 270 271 272 272 272 273 273 274 274 274 274 274 274 274 273 273 272 271 272 272 272 271 270 268 268 267 267 267 268 268 268 269 269 270 270 271 271 271 272 272 273 273
287 287 286 286 285 285 285 285 285 285 285 285 285 285 284 283 282 282 281 280 280 280 278 277 276 276 275 276 277 277 276 276 275 275 274 274 274 273 273 272 271 271 270 271 272 272 272 272 273 273 273 274 274 274 274 273 273 272 271 271 272 272 271 270 269 268 267 266 266 266 266 267 267 267 268 268 269 269 270 270 270 270 271 271 271
287 287 286 286 286 285 285 285 285 284 284 284 284 284 282 281 280 280 279 279 279 279 277 276 275 275 275 276 277 277 276 276 275 275 274 274 274 274 273 272 271 272 272 272 272 272 272 273 273 273 273 273 273 273 273 272 271 270 270 271 271 271 269 268 267 266 265 265 265 266 266 266 266 267 267 267 268 268 268 268 268 269 269 270 270
287 287 287 286 286 285 285 284 284 284 283 283 282 282 281 280 279 279 278 277 278 277 276 275 274 274 275 276 277 276 276 275 275 274 274 273 273 273 273 272 272 273 273 273 273 272 273 273 273 273 273 273 272 272 271 271 270 270 270 271 270 269 268 267 266 265 265 265 265 265 265 265 266 266 266 266 266 266 267 267 268 268 269 269 270
287 287 287 286 286 285 284 284 283 283 282 282 281 281 280 279 278 278 277 276 276 277 276 275 274 274 275 275 276 276 275 275 274 274 273 272 273 272 271 271 273 273 273 273 273 273 273 274 274 273 272 271 271 270 270 269 269 269 269 269 268 267 267 266 265 265 265 265 265 265 265 265 265 265 266 266 266 266 266 267 267 268 268 269 270
288 287 287 286 286 285 284 283 282 281 281 280 280 280 279 279 278 277 276 275 276 276 276 275 274 273 274 274 275 274 274 273 273 273 273 272 272 272 271 271 272 273 273 273 273 273 274 274 273 272 271 270 270 269 269 269 269 269 268 268 267 267 266 265 265 265 265 265 265 265 265 265 265 265 265 266 266 266 267 267 267 268 268 269 269
288 287 286 286 285 284 283 282 281 280 279 279 278 278 278 278 277 277 276 276 276 275 275 274 273 273 273 274 274 273 273 272 272 272 272 271 272 272 271 271 271 272 272 272 272 273 273 272 272 271 270 270 269 269 268 268 268 268 268 267 267 266 266 265 265 265 265 265 265 265 265 265 265 265 266 266 266 267 267 267 267 267 268 268 268
287 287 286 285 284 283 282 281 280 279 279 278 278 277 277 276 276 277 277 277 277 276 276 275 274 274 275 274 273 272 272 271 272 272 272 271 271 271 271 270 270 271 271 271 272 272 272 272 271 271 270 269 269 269 268 268 268 268 267 267 267 266 265 265 265 265 265 265 265 265 265 265 265 266 266 266 266 266 266 267 267 267 267 267 268
286 285 284 283 283 282 281 280 279 279 278 277 277 276 276 276 276 276 276 277 277 277 277 277 276 276 275 274 273 272 272 272 272 272 271 271 270 270 270 270 271 271 271 272 272 272 271 271 271 270 270 269 268 268 268 268 267 267 267 266 266 266 265 265 265 264 264 264 264 264 265 265 265 266 266 266 266 266 266 267 267 267 267 267 268
284 284 283 282 281 281 280 279 278 277 277 276 275 274 274 274 274 275 275 275 276 276 275 275 274 274 273 273 273 272 272 272 271 271 270 271 271 271 271 272 272 272 272 273 273 272 271 270 270 270 270 268 267 267 267 267 267 267 267 266 266 265 265 264 264 264 264 264 264 264 265 265 266 266 266 266 266 266 266 266 266 267 267 267 267
283 283 282 281 281 280 279 278 277 276 275 275 274 273 273 272 272 273 273 274 274 274 273 273 272 272 272 272 272 271 271 270 270 270 271 271 272 272 273 273 273 273 273 273 273 272 271 271 270 270 269 267 266 266 266 266 266 266 266 266 266 265 264 264 264 263 263 264 264 265 265 266 266 266 266 266 266 266 266 266 266 266 267 267 267
282 282 281 280 280 279 278 277 276 275 274 273 272 272 272 271 271 272 272 272 273 273 272 272 271 271 271 271 271 271 270 270 270 271 272 272 273 273 273 273 273 273 273 273 272 272 271 271 270 269 268 267 266 266 266 266 265 265 265 265 265 265 264 264 263 263 263 264 264 265 265 266 266 266 266 266 266 266 266 266 266 266 267 267 267
281 281 280 279 278 277 276 276 275 274 273 272 272 271 271 270 270 270 271 272 272 272 271 271 271 271 271 271 272 272 271 271 271 272 272 272 272 272 272 272 272 272 273 272 271 271 270 270 269 268 267 266 266 266 265 265 265 265 264 264 264 264 264 263 263 263 263 263 264 264 265 265 265 266 266 266 266 266 266 266 266 266 266 267 267
281 280 279 278 278 277 276 275 274 273 273 272 271 271 270 270 270 270 270 271 271 271 271 271 271 271 272 272 272 272 272 272 272 272 272 272 272 272 271 271 272 272 272 271 270 270 270 269 268 268 266 266 266 265 265 265 265 264 264 264 264 264 264 263 263 263 263 263 263 264 264 265 265 266 266 266 266 266 266 266 266 266 266 267 267
280 279 278 277 277 276 276 275 274 273 272 272 271 270 270 270 269 269 270 270 270 271 271 270 270 270 270 271 271 271 271 271 271 271 271 271 271 271 271 271 271 271 271 270 269 269 269 268 267 267 266 265 265 265 265 265 264 264 264 264 264 264 264 263 263 263 263 263 263 264 264 265 265 265 265 266 266 266 266 266 266 266 266 267 267
278 277 276 276 275 275 275 274 273 272 271 271 270 270 269 269 269 269 269 269 269 269 269 269 269 269 269 269 269 269 269 269 270 270 270 270 270 270 270 270 270 270 270 269 269 268 268 267 266 266 265 265 265 264 264 264 264 264 264 263 263 264 263 263 263 262 263 263 263 263 264 264 265 265 265 266 266 265 265 265 266 266 266 267 267
277 276 275 274 274 273 273 272 272 271 270 270 269 268 268 268 268 268 267 267 268 267 267 267 267 267 267 268 268 267 267 267 267 268 268 269 269 269 269 269 269 269 269 269 268 267 267 266 266 265 264 264 264 264 264 264 264 264 263 263 263 263 263 263 262 262 262 262 262 263 263 264 264 264 265 265 265 265 265 265 266 266 266 266 267
276 275 274 273 272 272 271 270 270 269 269 268 268 268 267 267 267 267 267 266 266 266 266 265 265 266 266 267 267 266 266 265 266 266 267 267 268 268 268 268 269 269 268 268 267 266 266 265 265 265 264 264 264 264 263 263 263 263 263 263 263 263 263 263 263 262 262 262 262 262 263 263 264 264 265 265 265 265 265 265 265 265 266 266 266
273 272 271 271 271 270 270 269 269 268 268 267 267 267 266 266 266 266 265 265 265 265 264 264 264 265 265 266 265 264 264 264 264 265 265 265 266 266 266 267 268 268 267 266 266 265 265 265 264 264 263 263 263 263 263 263 263 263 263 263 263 263 263 263 263 262 262 262 262 262 262 263 263 264 264 264 265 265 265 265 265 265 265 265 266
271 270 269 269 269 268 268 268 268 267 267 267 266 266 266 265 265 265 265 264 264 264 264 263 263 264 264 264 263 263 262 262 263 263 264 264 265 265 265 265 266 266 266 265 265 264 264 264 264 263 263 263 263 263 263 263 263 263 263 262 262 263 263 263 262 262 262 262 262 262 262 262 263 263 264 264 265 265 265 264 264 264 264 265 265
269 268 268 267 267 267 267 267 267 266 266 266 265 265 265 265 265 264 264 264 263 263 263 262 262 263 263 262 262 262 263 262 262 262 262 263 263 264 264 265 265 265 264 264 264 263 263 263 263 263 263 263 263 263 263 262 262 262 262 262 262 262 262 262 262 262 262 261 261 261 262 262 263 263 263 264 264 264 264 264 264 264 264 264 265
268 267 267 266 266 266 266 265 265 265 265 265 265 264 264 264 264 264 263 263 262 262 262 262 262 262 262 262 262 262 263 263 263 262 262 262 263 263 263 263 263 263 263 263 263 263 262 262 262 263 263 263 263 263 262 262 262 262 262 261 261 261 262 262 262 262 261 261 261 261 261 261 262 263 263 263 263 264 264 264 263 263 263 264 264
266 266 266 265 265 265 265 265 265 265 264 264 264 264 264 263 263 263 263 262 262 262 261 261 261 261 261 261 261 261 262 262 262 262 262 262 262 262 262 262 262 262 262 262 262 262 262 262 262 262 262 263 263 262 262 262 262 261 261 261 261 261 261 262 262 261 261 260 260 260 260 261 262 262 262 263 263 263 263 263 263 263 263 263 264
265 265 265 265 264 264 265 265 265 264 264 264 264 263 263 263 263 262 262 262 261 261 261 261 261 261 261 261 261 260 261 261 262 262 262 262 262 262 262 262 262 262 262 262 262 262 262 262 262 262 262 262 262 262 262 262 261 261 261 261 261 261 261 262 261 261 260 259 259 259 260 260 261 261 262 263 263 263 263 263 263 263 263 263 263
265 265 264 264 264 264 264 264 264 263 263 263 263 262 262 262 262 261 261 261 260 260 260 260 260 260 260 260 260 260 260 261 261 261 262 262 262 262 262 262 262 262 262 262 262 262 262 262 262 262 262 262 262 262 261 261 261 261 261 261 261 261 261 262 261 261 260 259 259 259 259 259 260 261 262 262 263 263 263 263 263 263 263 263 263
264 264 264 264 264 263 263 263 263 262 262 262 262 262 261 261 261 260 260 260 260 260 260 260 260 260 260 260 260 260 260 260 261 261 261 261 261 261 262 262 261 262 262 262 262 261 261 261 261 261 262 262 262 261 261 261 261 261 261 261 261 261 261 261 261 261 260 260 259 259 259 259 260 261 262 262 263 263 263 263 264 264 263 263 263
264 264 264 263 263 263 262 262 262 262 261 261 261 261 260 260 260 260 259 259 259 260 260 260 260 260 260 260 260 260 260 260 260 261 261 261 261 261 261 261 261 261 261 261 261 261 261 261 261 261 261 261 261 261 262 262 261 261 261 261 261 261 261 261 261 261 261 260 260 259 259 259 259 261 262 262 262 262 263 263 264 264 264 264 263
263 263 263 262 262 262 262 262 261 261 261 260 260 260 260 259 259 259 259 260 260 260 260 260 260 260 260 260 260 260 260 260 260 260 261 261 261 261 261 261 261 261 261 261 261 261 261 261 261 261 261 261 261 261 261 261 261 261 261 261 260 260 260 260 260 260 260 260 260 260 259 259 260 261 262 262 262 262 263 263 264 264 264 264 264
262 262 262 261 261 261 261 261 260 260 260 260 259 259 259 259 260 260 260 260 260 260 260 260 260 260 260 260 260 260 260 260 260 260 260 261 261 261 261 261 261 261 261 261 261 261 261 261 261 261 261 261 261 261 261 261 261 261 261 260 260 260 260 260 260 260 260 260 260 260 260 260 260 260 260 261 261 262 263 263 264 264 264 264 264
261 261 261 261 260 260 260 260 260 260 260 259 260 260 260 260 261 261 261 260 260 260 260 260 261 261 260 260 260 260 260 260 260 260 260 261 261 261 261 261 261 261 261 261 261 261 261 260 260 260 260 260 260 260 260 260 260 260 260 260 260 260 260 260 260 260 260 260 260 259 259 259 259 259 259 260 261 262 263 263 264 264 264 264 264
260 260 260 260 260 260 260 260 260 260 260 260 260 260 261 261 261 261 260 260 261 261 261 261 261 260 261 260 260 261 261 261 261 261 260 260 260 260 260 260 260 260 260 260 260 260 260 260 260 260 260 260 260 260 260 260 260 260 260 260 260 260 260 260 260 260 260 260 259 259 258 258 259 259 259 260 261 262 262 263 264 264 264 264 264
Wind_Speed
30 30 30 30 29 28 27 25 23 21 20 19 18 17 16 14 13 11 11 10 9 8 7 7 6 5 5 5 5 6 6 6 6 6 6 6 6 7 8 8 8 8 8 8 8 9 10 10 10 9 10 13 14 13 13 12 12 13 13 14 16 13 14 18 15 20 35 39 33 26 23 27 29 25 27 31 31 30 33 33 32 32 32 33 33
31 31 31 30 29 28 26 24 23 22 21 19 17 16 15 13 12 11 10 9 8 7 7 6 5 5 5 5 5 5 5 5 6 6 6 6 6 7 8 8 8 8 8 9 9 10 11 11 11 10 11 14 14 13 13 13 12 15 16 15 17 16 13 17 18 18 28 38 37 30 24 26 30 29 28 30 31 30 31 32 31 31 31 32 33
31 31 31 30 29 28 26 24 23 22 21 19 17 15 14 12 11 10 9 9 7 7 6 5 5 4 4 4 4 5 5 5 6 6 6 7 7 7 8 8 8 9 9 10 10 11 12 12 12 11 13 14 14 14 13 13 14 16 18 17 17 17 15 14 18 19 24 33 36 31 25 25 31 32 29 29 29 28 29 30 29 31 31 31 30
31 31 31 30 29 27 26 25 24 22 20 19 17 15 14 12 10 9 8 8 7 6 5 4 4 3 3 4 4 5 5 5 6 6 6 7 7 8 8 8 9 9 10 10 11 11 12 13 13 12 14 15 15 15 14 15 16 18 19 19 16 16 16 14 16 19 22 29 34 31 26 25 29 30 29 28 27 26 27 29 29 29 29 28 29
32 32 31 30 29 28 26 25 24 22 20 19 17 15 14 12 11 9 8 7 6 6 5 4 3 3 4 4 5 5 5 6 6 6 7 7 8 9 9 9 9 9 10 10 10 11 12 13 13 13 14 15 15 16 16 16 19 20 20 18 17 16 17 17 17 18 20 25 31 31 27 24 26 28 26 26 27 28 28 29 28 27 27 28 30
32 32 32 31 30 28 27 26 25 23 21 19 17 15 14 12 11 10 8 7 6 5 4 3 3 3 4 4 4 5 5 6 7 7 8 8 9 9 9 10 10 10 10 11 10 11 11 12 13 13 14 15 16 16 18 19 22 21 19 17 18 17 17 17 16 17 19 22 26 28 26 22 23 26 24 23 26 29 30 30 28 26 27 29 30
33 32 32 31 30 29 28 27 26 23 21 19 17 16 15 13 11 10 8 7 5 4 3 3 2 2 3 4 4 5 6 6 7 8 9 10 10 10 11 11 11 11 11 11 11 11 12 12 13 14 14 15 16 17 20 22 22 20 18 18 17 16 16 15 14 16 18 20 22 23 24 22 21 23 25 24 24 25 27 28 28 28 28 27 29
33 33 32 32 31 30 29 28 26 24 22 20 18 17 16 14 12 10 9 7 5 4 3 2 1 1 2 4 4 5 6 7 8 9 10 10 11 11 11 12 12 12 12 13 13 12 12 12 13 14 15 15 17 19 20 21 20 20 19 18 15 14 14 14 15 17 18 20 22 22 23 23 21 22 25 25 23 22 24 26 27 29 29 27 28
34 33 33 32 32 31 29 28 27 25 23 21 20 19 17 15 13 12 10 8 6 5 4 2 1 1 2 4 5 6 7 8 9 9 10 11 12 12 13 13 13 13 14 14 14 13 13 13 14 14 16 17 18 18 18 17 17 19 20 18 15 16 17 18 18 19 19 20 21 22 23 24 23 24 25 25 23 24 27 27 27 28 29 30 29
35 34 34 33 32 31 29 29 28 27 25 23 22 20 18 16 14 13 11 8 7 6 5 3 2 2 3 4 6 7 8 9 9 10 11 12 13 13 14 14 14 15 15 15 15 15 14 14 15 16 17 18 19 17 16 15 15 17 18 17 18 19 20 21 20 20 20 21 22 22 23 25 25 24 26 27 26 28 27 26 26 28 29 28 27
36 35 34 33 32 31 30 29 29 27 26 24 23 22 19 18 16 14 12 10 9 8 6 5 3 2 3 5 7 7 8 9 9 10 11 12 13 14 14 15 15 15 16 16 16 16 16 16 17 18 18 19 19 17 16 16 16 17 17 17 17 18 20 22 22 22 22 22 23 22 21 25 27 26 27 29 29 29 27 25 26 28 26 23 22
36 35 34 33 32 32 32 31 30 29 28 26 25 23 20 19 18 16 13 12 11 9 8 6 4 4 4 5 7 8 8 9 10 11 12 12 12 14 14 15 16 16 16 16 16 17 17 18 18 19 19 18 18 18 18 18 17 16 17 17 17 17 18 20 23 24 24 25 27 25 23 27 30 28 28 31 32 30 28 27 27 28 27 24 22
36 35 34 34 34 34 34 33 32 31 30 28 27 24 22 21 19 17 15 14 13 11 9 8 6 5 6 6 7 8 9 9 10 12 12 12 12 13 15 15 15 16 16 16 16 17 17 18 19 19 18 17 17 18 19 19 19 18 19 19 21 22 22 22 23 25 27 29 31 31 30 31 33 33 32 33 34 31 29 28 28 28 27 26 25
36 35 35 35 35 35 35 35 34 33 31 30 28 26 24 23 21 19 17 16 15 13 11 9 7 7 7 7 8 8 9 10 11 12 12 12 12 13 15 16 15 16 16 16 16 17 16 17 18 18 18 17 17 19 19 20 21 22 23 25 28 29 28 28 28 29 32 33 35 38 39 38 39 40 38 37 36 35 33 34 33 31 31 30 29
36 36 36 35 36 36 35 35 35 34 32 32 30 28 26 25 23 21 20 18 17 15 12 10 9 8 8 8 9 8 9 10 11 12 12 12 12 13 15 16 16 16 16 16 16 16 15 15 16 17 17 17 17 17 18 20 22 25 28 29 29 29 29 31 33 35 37 36 37 40 41 40 39 40 39 38 37 36 35 36 34 32 32 32 30
36 36 36 35 36 37 37 37 37 35 34 33 31 30 28 27 25 24 22 21 19 17 14 12 11 10 9 9 9 9 9 10 11 11 12 12 13 14 16 16 16 17 16 15 14 14 13 14 15 16 17 17 17 16 17 20 24 26 28 28 28 30 31 31 31 31 31 32 33 36 37 38 38 38 37 36 35 34 34 34 31 30 30 27 24
36 36 36 37 38 39 39 39 38 37 36 34 33 32 31 29 27 26 24 23 22 19 16 14 13 12 11 10 10 9 9 10 11 11 12 12 13 15 16 16 16 16 15 14 13 13 12 13 14 15 17 18 18 17 18 20 23 25 27 29 31 32 31 30 29 29 30 31 33 34 35 36 37 37 36 36 37 37 36 34 31 30 26 19 15
37 38 38 39 40 40 40 41 40 39 37 36 34 34 32 31 30 28 26 25 22 19 17 16 15 13 12 10 11 11 10 9 10 11 11 12 13 14 15 16 15 15 14 13 13 12 12 12 12 14 17 18 18 17 18 20 23 26 27 29 30 30 30 32 34 33 31 30 31 32 33 34 34 35 36 36 36 34 32 32 31 29 24 18 16
38 38 39 40 41 41 41 42 41 39 38 37 35 35 34 33 31 30 28 25 22 20 19 18 16 14 12 11 12 12 11 9 10 11 11 11 13 14 15 15 15 14 14 13 12 12 12 12 12 14 16 17 17 17 18 20 23 25 26 26 28 30 32 32 32 31 30 32 34 35 35 34 33 33 33 32 30 29 28 28 28 27 24 21 22
38 38 40 40 40 41 42 42 41 40 39 37 36 35 35 34 32 31 28 26 23 22 21 19 18 15 13 12 13 13 12 10 10 11 12 11 12 13 15 15 15 14 13 12 12 13 13 13 14 14 14 14 16 18 19 20 22 24 24 24 26 29 30 29 29 29 31 34 35 34 33 32 31 29 29 28 27 26 25 25 24 25 24 23 23
37 38 38 38 39 40 41 42 41 40 39 37 36 35 36 35 33 31 29 26 24 23 22 20 19 16 14 13 13 13 13 12 11 11 12 12 11 13 15 16 16 15 14 13 13 14 13 15 15 13 12 14 17 19 20 20 21 22 23 22 23 24 25 27 29 30 30 30 30 30 30 29 28 27 26 26 26 25 24 24 23 23 24 23 24
36 36 36 37 38 39 40 41 40 39 38 37 35 35 35 35 33 31 29 27 25 24 22 21 20 18 16 15 14 13 13 13 12 12 12 12 12 12 15 17 16 14 14 14 14 15 15 16 15 13 13 16 19 20 20 20 20 21 20 19 19 20 21 24 27 27 27 27 26 26 26 25 25 26 26 26 25 24 23 23 24 24 24 24 24
32 33 34 35 37 37 38 39 38 38 38 37 36 35 35 34 32 30 28 27 25 24 23 21 20 20 18 17 15 14 13 14 14 13 12 12 12 12 14 15 14 14 15 17 17 16 16 16 14 14 15 17 19 19 19 19 20 19 18 17 18 18 20 22 24 24 25 25 24 24 25 25 25 26 26 25 25 24 24 25 26 26 26 25 25
29 30 32 34 35 35 36 37 37 37 37 36 35 35 34 33 32 30 29 27 26 25 23 22 22 21 20 19 16 15 14 14 14 14 13 13 12 12 12 14 15 16 17 18 18 16 16 16 15 15 16 17 18 19 18 19 19 18 16 16 17 18 19 21 22 23 24 24 23 24 25 25 25 25 24 25 26 26 26 26 26 26 26 26 26
27 29 30 31 32 33 33 34 35 35 35 36 36 36 35 34 32 31 29 28 27 26 24 23 23 22 21 20 18 16 15 14 13 13 13 13 12 12 12 13 15 16 17 18 18 17 16 16 15 15 16 17 18 19 19 19 17 16 15 15 16 17 18 19 20 22 23 23 23 24 25 25 25 25 25 26 27 27 27 28 28 28 27 27 27
26 27 28 30 31 31 32 32 33 33 34 34 35 35 36 35 34 32 30 29 28 27 25 24 23 22 22 21 19 17 15 15 14 13 13 14 13 13 13 14 14 15 16 17 17 16 16 15 15 17 18 17 18 19 19 18 15 13 14 14 15 16 17 18 20 21 22 23 23 24 25 26 27 27 27 27 27 27 28 29 30 30 29 27 28
25 27 28 29 30 31 32 32 33 33 33 34 34 34 35 35 34 33 32 31 30 28 26 24 23 23 23 22 20 18 16 16 15 14 14 14 14 13 12 12 13 13 15 17 17 17 17 17 18 18 18 18 19 18 17 16 14 13 14 15 15 16 16 17 18 19 20 22 23 24 25 26 27 28 28 27 27 27 27 28 29 30 30 29 29
25 27 28 29 30 31 32 33 33 33 34 34 35 36 36 36 36 36 36 34 32 29 28 27 26 25 24 22 20 18 18 18 17 16 15 14 13 12 12 11 11 12 14 15 17 19 19 18 18 18 19 21 20 17 16 15 14 14 15 15 15 16 16 16 16 17 18 19 21 23 25 26 27 27 27 27 27 28 28 27 27 28 29 29 27
24 26 26 28 29 30 31 32 32 33 33 34 35 36 36 36 37 36 35 33 30 28 26 26 25 23 22 22 20 19 20 19 17 14 13 13 13 13 12 11 12 14 14 15 18 20 19 16 16 18 21 21 19 17 17 16 15 14 15 15 15 16 16 16 17 18 18 19 21 23 24 25 26 26 26 27 28 28 28 27 27 27 28 27 25
23 24 25 27 28 29 30 31 32 32 32 33 33 33 33 33 33 33 31 29 27 25 24 24 22 21 21 21 20 20 20 18 14 12 13 14 15 15 15 14 15 16 16 16 17 18 17 15 17 19 21 21 18 18 17 16 16 16 16 15 15 16 16 16 17 18 19 19 20 21 22 23 24 24 25 27 28 29 29 27 27 27 26 25 25
23 24 26 27 29 29 30 30 30 31 31 31 31 31 30 30 30 30 29 27 26 25 23 23 21 20 21 21 20 19 18 16 14 14 15 16 17 17 17 17 18 17 17 18 19 19 18 18 20 21 22 20 18 18 17 16 16 16 16 16 16 16 16 17 17 18 19 19 19 20 20 21 23 24 25 26 27 29 30 29 27 26 25 25 25
25 26 26 27 28 28 28 29 29 29 29 28 28 28 29 28 28 28 28 27 25 24 23 22 21 20 19 19 19 18 17 15 15 16 18 18 18 17 17 17 18 17 17 17 20 21 21 21 22 22 21 20 19 18 17 16 16 15 15 17 17 16 16 17 18 18 18 17 18 19 19 20 23 24 24 25 26 27 29 28 27 26 26 25 25
25 26 26 26 26 27 27 28 28 28 28 28 28 27 27 27 26 25 24 22 21 20 19 19 18 17 17 17 17 18 18 16 15 16 18 18 17 17 16 17 18 17 17 19 20 20 21 21 22 22 21 20 19 18 17 16 16 15 15 16 16 16 16 17 17 18 18 16 16 17 19 21 22 23 24 24 25 25 26 27 27 27 26 25 25
24 25 25 25 26 27 27 28 28 28 28 28 28 27 27 26 24 21 19 19 18 18 18 17 16 15 16 16 17 18 18 17 17 17 17 16 16 16 16 17 17 17 18 21 22 22 21 21 22 22 21 20 18 18 17 16 15 15 15 15 16 16 16 16 18 19 18 16 16 17 19 20 21 22 23 24 24 25 26 26 26 26 26 25 25
22 23 24 24 24 25 26 26 26 26 26 27 27 27 26 24 23 21 19 19 19 19 18 17 16 16 15 15 16 17 16 17 17 17 16 16 16 15 17 19 20 19 20 21 22 22 22 23 23 22 21 20 18 18 17 16 15 15 15 15 16 16 16 17 18 18 18 18 18 18 18 19 20 21 22 23 23 24 25 26 26 26 26 25 25
20 22 22 23 23 23 24 24 24 24 24 24 24 24 23 22 21 21 20 19 18 17 16 15 15 16 15 15 16 16 16 17 17 17 17 17 17 17 19 21 21 22 24 24 23 23 24 24 23 22 21 19 18 17 17 16 16 15 15 15 16 16 16 17 18 17 17 18 18 18 18 19 19 20 21 21 22 23 24 26 27 26 25 25 24
19 21 22 22 21 21 21 21 21 21 21 21 21 21 21 20 20 18 18 17 16 16 16 15 15 15 16 16 16 17 18 18 17 17 17 17 17 18 21 23 23 24 25 25 24 24 24 24 23 22 21 19 18 17 17 16 16 15 15 15 15 16 16 17 17 17 17 18 18 18 18 18 19 20 20 20 22 23 25 26 27 26 26 26 25
18 19 20 21 20 20 19 19 18 19 19 19 19 19 19 18 17 16 16 15 14 14 14 14 14 15 15 15 15 16 16 16 16 17 17 17 18 20 23 24 25 25 26 25 24 24 24 25 24 23 21 20 19 18 17 16 16 15 15 15 15 16 16 17 17 17 17 18 18 17 18 18 18 18 19 19 21 23 25 26 27 27 27 27 25
17 18 18 18 18 19 18 18 17 17 18 18 18 18 17 16 15 15 14 14 13 13 13 13 14 15 15 14 14 15 16 16 17 17 17 17 19 21 23 24 25 25 26 26 26 26 25 25 24 23 21 20 19 18 17 17 16 16 16 16 17 17 17 17 18 18 18 18 18 18 17 18 18 18 18 20 21 21 23 26 27 26 26 26 26
17 16 16 16 17 17 17 17 17 17 17 17 17 16 16 15 14 13 13 12 12 13 13 13 14 14 14 14 14 14 16 17 17 16 15 15 16 17 20 23 24 25 26 27 26 25 24 23 22 21 20 20 19 18 18 17 17 16 16 17 17 18 18 18 19 20 19 19 19 18 17 17 18 18 19 20 20 21 24 26 27 26 25 25 26
16 15 15 15 16 16 16 16 16 16 16 15 15 14 13 13 12 12 12 12 12 12 12 13 14 14 13 14 13 13 16 18 17 16 15 15 15 16 18 20 22 23 24 23 22 21 21 21 20 20 20 19 19 19 18 18 17 17 17 18 18 19 20 20 20 20 20 20 19 18 17 17 17 18 19 20 20 22 25 27 27 26 26 25 25
16 16 16 15 15 15 15 15 15 14 14 13 13 12 12 11 11 11 11 11 12 12 13 14 14 14 13 13 12 12 14 17 17 16 16 16 17 18 19 20 21 22 22 21 20 19 19 19 19 19 19 19 19 19 19 19 19 18 18 19 19 20 21 21 21 21 21 20 19 18 17 17 17 17 18 19 21 24 26 27 27 26 26 26 26
15 16 16 15 15 14 14 13 13 12 12 12 12 11 11 10 10 10 11 11 11 12 13 14 14 13 13 12 11 12 14 15 16 17 17 18 19 20 20 21 22 23 23 23 21 19 18 19 19 19 20 20 20 20 20 20 20 20 20 20 21 21 22 22 22 21 20 20 19 19 19 18 18 18 18 19 21 24 26 27 27 26 26 26 26
14 15 15 15 14 12 12 12 11 11 11 11 10 10 10 9 10 10 11 11 12 12 13 13 13 13 13 12 12 13 14 15 16 16 17 19 21 22 23 23 23 23 23 22 20 18 18 19 19 20 20 20 20 21 21 21 21 21 21 21 22 22 22 22 21 20 19 20 20 20 20 19 18 18 18 19 21 23 25 27 27 27 26 26 26
13 13 14 14 13 12 11 11 11 10 10 9 9 9 9 10 10 10 11 11 12 12 12 12 12 13 13 13 13 14 14 15 14 14 15 16 18 20 21 21 21 21 21 20 19 18 19 20 20 21 21 21 21 21 22 22 22 22 22 21 22 22 22 21 19 18 18 19 20 20 19 18 18 19 19 19 20 22 25 27 27 27 26 25 25
11 12 12 13 13 12 11 11 10 10 9 9 9 9 9 10 10 10 10 10 10 11 11 12 12 13 14 14 14 14 14 14 14 14 14 15 16 17 17 18 18 19 19 19 19 19 20 21 21 22 22 22 21 21 22 22 22 21 21 21 21 22 21 19 18 17 17 17 18 18 18 19 20 20 19 19 20 22 24 26 26 25 24 24 25
10 10 10 11 11 11 10 10 10 9 9 9 9 9 9 9 9 9 9 9 10 10 11 12 13 14 15 15 15 15 15 15 15 15 15 16 16 16 16 17 17 18 19 19 20 20 21 21 22 22 22 22 21 21 21 21 21 21 21 20 21 21 20 18 17 17 17 17 17 18 19 20 21 20 19 18 19 21 24 25 24 23 22 23 24
9 9 9 9 9 9 10 9 9 9 9 9 9 8 8 8 8 8 9 9 10 11 12 13 13 14 14 15 15 16 16 16 16 16 17 17 18 17 17 18 18 19 19 20 20 21 21 21 21 21 21 21 20 20 20 20 20 20 20 20 19 18 18 17 17 17 17 17 18 18 19 20 20 18 17 17 18 21 24 24 22 21 21 22 22
8 8 8 8 8 8 8 8 8 8 8 8 8 8 7 7 8 8 9 10 11 11 12 12 13 13 14 15 15 16 16 17 18 18 19 19 19 18 18 18 18 18 19 20 20 20 19 19 20 20 20 20 19 19 19 19 19 19 19 18 17 17 16 16 17 17 17 17 18 18 18 18 17 16 16 17 19 21 23 23 21 20 20 20 20
7 7 7 7 7 7 7 7 6 7 7 7 7 6 7 7 8 9 9 10 11 12 12 13 13 13 14 15 15 16 16 17 18 19 19 19 19 18 18 18 18 18 19 19 19 19 19 18 19 19 19 19 18 18 18 19 19 18 18 17 17 16 16 16 16 16 16 17 16 16 15 15 16 17 18 19 19 20 22 21 19 19 19 19 19
5 5 6 6 6 6 6 6 6 6 6 7 7 8 8 9 10 10 10 11 12 12 12 12 13 13 14 14 15 15 16 17 18 19 20 20 20 19 19 19 19 19 19 19 18 18 18 18 18 18 18 19 19 19 19 19 19 18 18 17 17 17 16 16 16 16 15 15 15 15 16 16 18 20 21 20 19 20 20 20 19 18 18 17 17
Wind_Direction
162 161 160 159 158 156 154 152 149 145 143 143 144 141 136 132 129 129 126 120 115 109 103 98 91 80 70 58 47 41 32 25 21 13 11 10 3 360 357 356 358 355 353 352 345 337 336 340 345 341 328 323 330 338 338 337 331 319 316 314 310 310 308 304 296 291 298 303 305 311 320 319 318 320 316 314 317 316 314 314 315 314 314 313 312
166 164 163 163 162 159 156 153 150 148 148 150 148 143 138 135 134 133 127 121 115 109 103 96 87 74 62 51 40 33 25 17 11 5 2 1 357 355 351 349 350 348 346 344 340 337 336 338 342 336 327 328 334 339 338 334 327 317 316 317 313 311 309 304 300 294 296 301 305 310 321 322 316 317 318 317 318 319 316 316 317 316 314 314 313
170 169 167 166 164 162 159 156 153 153 155 155 152 146 142 140 140 136 129 125 118 110 102 92 83 70 57 46 34 23 16 11 4 358 353 349 348 347 343 341 342 341 339 337 336 335 334 334 337 333 328 331 335 337 334 327 320 315 314 315 312 309 310 304 299 297 295 298 302 309 320 321 315 315 318 317 317 319 317 317 317 315 314 315 315
174 173 170 168 167 164 162 159 159 160 161 160 156 151 148 147 147 143 135 129 122 114 106 96 85 69 51 35 20 12 8 3 354 347 341 337 337 335 334 334 334 332 330 330 331 329 328 329 331 331 329 331 332 331 329 321 315 313 313 315 312 307 307 304 298 297 297 297 300 306 315 317 314 314 317 318 319 319 317 316 315 314 313 313 311
177 175 173 171 169 168 166 164 166 168 167 165 161 157 156 156 155 151 146 140 131 122 112 98 79 54 36 20 9 1 355 350 343 335 328 325 326 325 325 325 324 324 323 324 324 321 322 324 326 328 328 327 328 327 322 315 312 314 315 314 311 307 306 306 301 298 296 295 298 305 312 316 313 313 318 320 320 320 318 315 315 315 314 311 310
180 178 176 175 173 172 171 170 172 174 172 170 166 163 163 165 165 162 158 152 142 128 111 95 69 41 21 5 356 349 344 338 329 323 318 317 316 315 315 315 314 315 318 319 319 318 319 320 321 323 324 323 323 319 313 309 311 315 316 314 312 312 310 309 307 303 298 295 298 304 310 316 315 313 316 320 320 318 317 315 315 316 315 313 313
182 180 180 179 177 178 177 177 179 179 177 174 171 171 173 174 174 172 169 164 152 136 118 100 69 37 10 350 342 336 332 326 318 314 312 310 308 307 308 309 309 311 315 317 319 319 318 318 318 320 321 318 314 309 307 309 313 314 314 315 314 313 311 309 310 309 304 301 301 304 308 313 313 310 312 317 316 314 314 314 314 315 315 313 312
184 183 182 182 182 183 182 182 184 183 181 179 178 178 181 183 183 182 180 174 163 151 140 121 83 31 345 332 327 325 322 317 311 308 306 304 303 304 304 305 308 311 314 317 320 320 319 318 318 317 316 312 307 306 307 310 312 310 310 312 310 307 308 308 308 309 307 303 303 304 307 309 310 310 311 315 314 311 312 310 307 309 311 310 310
185 185 185 186 186 187 187 187 188 188 185 184 185 186 188 189 190 190 188 185 179 171 170 165 159 314 324 320 319 319 315 309 306 303 302 302 302 304 305 307 310 311 314 317 319 321 321 320 317 314 310 307 305 306 306 306 305 304 307 308 305 302 302 300 300 302 303 300 300 304 305 304 307 310 310 311 310 307 308 307 302 303 306 305 306
187 187 188 188 188 189 189 190 192 192 190 190 191 191 193 194 197 199 196 194 193 190 192 195 209 267 308 314 314 312 307 304 304 301 302 303 303 305 308 309 311 312 314 317 319 319 320 318 314 310 307 306 307 309 307 304 302 301 302 303 301 301 301 300 298 298 297 294 295 300 301 299 302 305 303 304 304 301 301 300 299 301 303 302 302
190 190 190 189 190 190 191 192 194 196 195 195 196 196 197 199 202 205 202 203 205 203 204 210 219 258 297 308 306 304 302 301 301 299 298 300 300 302 305 306 308 310 312 314 316 316 316 315 312 309 309 310 312 312 310 307 305 303 302 302 300 300 302 301 298 296 294 290 290 293 293 293 297 299 297 297 298 296 293 292 294 297 298 298 299
192 192 190 190 191 192 194 195 197 199 199 199 200 200 202 205 207 209 208 211 213 211 213 219 227 255 283 294 295 296 298 297 296 295 294 294 294 296 299 301 303 305 307 309 310 311 312 312 310 308 310 313 313 312 312 312 309 306 304 301 298 297 296 295 295 295 293 292 291 289 287 289 293 293 293 293 293 292 288 287 289 290 290 291 291
193 192 191 191 193 194 196 198 200 202 202 202 203 203 205 209 212 213 213 215 218 218 218 223 232 253 272 282 287 292 294 291 290 289 289 290 291 291 293 295 296 298 300 301 303 305 306 306 306 307 311 314 314 314 316 317 314 309 305 302 300 297 293 290 290 291 291 291 288 286 286 287 286 286 289 291 290 290 289 287 287 285 284 284 283
193 193 193 194 195 195 198 201 203 204 205 204 204 205 209 213 215 216 217 219 222 221 221 225 234 250 265 274 281 287 288 286 285 285 285 288 289 287 288 289 290 292 292 294 297 299 301 302 304 308 313 316 317 317 316 315 313 310 307 303 301 300 297 296 296 295 293 288 281 281 285 286 284 285 288 289 287 285 286 286 285 283 282 283 285
194 195 195 196 196 196 200 204 205 206 207 206 207 208 211 215 218 219 220 223 226 225 223 227 235 248 260 269 275 281 283 281 280 281 283 284 284 283 283 285 287 288 289 291 295 298 301 303 305 309 313 316 315 311 309 309 308 305 302 301 301 301 301 301 301 298 295 290 284 284 286 287 287 288 289 289 288 285 286 286 286 288 290 292 295
195 196 196 196 197 199 203 205 206 208 208 208 208 211 213 216 219 221 222 225 227 225 225 228 235 245 254 262 270 275 276 275 275 277 279 280 279 279 281 284 285 287 289 292 296 299 301 303 306 307 308 311 310 304 302 304 303 303 305 306 306 305 302 302 301 299 298 296 294 293 293 293 295 296 296 298 298 299 301 300 298 299 299 297 297
197 197 197 199 200 203 205 207 208 209 209 209 210 213 215 217 221 223 223 226 227 226 228 231 233 241 249 257 267 271 269 269 271 274 276 277 276 277 281 283 284 286 290 293 294 297 299 301 302 301 302 306 306 302 302 306 308 311 312 310 308 305 304 305 306 303 302 300 298 297 297 298 299 300 301 302 302 304 305 303 302 301 298 295 293
200 199 200 202 203 206 208 209 210 210 210 212 214 216 217 219 223 224 224 227 230 229 231 233 234 238 244 254 265 270 267 263 266 272 274 274 275 277 279 281 281 283 288 290 290 293 298 296 290 290 297 302 301 301 306 311 312 313 312 310 309 309 308 309 308 307 306 304 300 299 299 299 299 300 301 301 301 303 302 298 298 297 293 290 291
203 202 204 206 207 209 210 211 212 213 214 216 217 218 219 221 223 225 225 227 230 232 232 234 235 238 242 251 263 269 268 262 263 269 271 270 272 274 276 277 279 281 283 286 286 289 294 294 288 287 293 297 298 303 309 311 311 312 312 312 311 308 308 309 310 311 312 308 305 304 303 303 303 303 304 304 304 305 303 299 299 296 291 289 291
206 206 209 210 210 211 212 213 215 216 218 219 219 220 220 221 222 223 223 225 228 232 234 235 237 238 240 247 259 267 270 266 262 266 268 267 268 270 272 271 273 275 274 274 281 286 291 294 294 291 290 294 301 307 309 310 311 312 313 312 307 306 310 313 311 310 309 307 307 307 306 308 309 309 309 310 310 310 308 305 305 303 300 300 297
211 211 211 212 212 214 215 217 218 220 221 221 220 219 220 221 222 223 223 224 226 231 234 236 238 238 239 246 256 264 269 268 264 264 264 264 262 262 264 265 266 267 267 270 278 284 287 292 293 289 289 297 305 307 308 311 312 311 309 307 305 308 312 312 308 308 310 310 311 312 312 314 316 316 318 318 316 315 314 311 309 307 306 305 303
214 212 212 213 216 217 218 219 220 220 221 220 219 218 218 220 222 222 222 223 226 230 233 236 239 240 240 246 254 260 265 268 268 264 261 261 260 257 259 263 264 263 265 269 273 276 284 289 286 282 291 301 304 306 309 312 312 310 308 308 311 314 313 309 309 314 317 318 317 317 318 322 323 323 323 323 321 320 317 314 311 308 304 302 301
215 214 214 216 218 219 220 220 220 220 221 220 218 217 217 218 219 220 221 222 224 228 231 235 240 243 244 246 250 255 259 263 267 266 260 258 257 255 255 256 254 253 259 263 267 274 282 282 276 282 297 303 304 307 310 312 311 310 311 314 318 316 311 311 318 324 324 322 322 321 322 325 325 324 325 324 322 321 319 315 312 310 307 304 301
216 215 216 217 219 220 220 221 221 221 220 219 217 216 216 217 217 218 220 221 223 226 229 233 238 244 248 249 250 252 254 256 261 264 263 259 255 254 251 247 244 248 255 260 265 274 278 276 277 289 300 302 304 307 308 310 312 313 314 316 317 317 317 321 327 328 324 323 323 321 322 325 325 324 323 321 320 319 318 316 315 314 312 310 307
216 217 218 218 219 220 220 220 221 221 220 219 217 216 216 216 216 217 219 220 223 225 227 232 238 243 248 251 252 254 257 258 257 258 260 259 255 252 248 244 244 247 252 257 262 267 269 271 279 291 299 303 306 306 307 311 314 312 311 315 319 324 329 330 329 326 322 321 321 319 319 322 323 322 322 321 321 321 322 321 321 320 318 317 314
219 219 219 219 220 220 220 219 220 220 220 220 220 220 219 218 218 218 218 220 224 227 229 231 236 241 246 251 254 256 258 259 259 256 254 253 251 248 244 241 243 247 252 257 261 262 264 270 279 287 295 302 304 302 305 310 311 309 312 320 326 331 334 331 326 323 319 317 317 317 318 320 322 324 326 326 325 326 327 326 324 323 324 323 320
223 221 220 220 220 220 220 220 219 219 219 220 220 220 221 221 219 220 220 220 222 225 227 229 232 237 244 249 253 255 255 254 255 255 252 251 249 247 243 241 241 247 253 257 260 261 263 268 274 280 290 298 300 300 304 309 312 316 321 326 329 331 332 328 321 317 316 316 316 316 317 321 324 326 328 328 327 328 330 329 326 324 325 325 321
225 223 222 220 220 221 221 221 220 220 220 220 220 220 221 221 221 223 225 224 224 225 228 231 233 238 243 248 249 250 250 251 252 254 254 251 248 245 243 241 243 249 255 260 263 261 259 259 265 277 292 300 301 302 307 311 314 318 322 326 328 329 330 328 322 318 319 319 316 316 320 323 325 327 328 328 326 327 330 330 326 325 326 325 321
226 224 222 221 221 222 221 222 222 222 222 222 222 223 224 225 225 227 229 231 233 235 237 239 241 244 247 249 247 246 248 253 259 260 256 250 244 241 239 241 247 255 263 267 262 253 246 248 262 281 295 302 301 301 305 309 312 315 320 325 328 330 330 329 325 323 322 320 318 319 322 322 323 325 327 325 325 327 330 330 327 325 325 323 319
226 225 223 223 223 223 222 223 224 224 224 224 224 225 227 229 231 232 234 235 237 239 242 245 248 249 250 251 252 254 258 262 264 255 244 239 237 237 240 245 249 256 266 269 256 242 239 252 271 285 295 297 294 295 300 303 307 313 319 323 326 329 329 327 325 323 320 320 321 322 322 320 320 323 324 323 324 327 328 329 328 326 324 322 318
228 227 226 225 226 225 224 223 223 224 225 226 226 226 227 229 232 235 236 237 237 237 240 245 249 251 254 255 256 256 256 258 254 244 238 238 238 239 244 247 248 255 264 261 249 243 250 264 275 284 289 288 286 288 293 295 299 306 314 320 325 328 328 326 326 322 319 322 326 324 322 319 318 319 321 322 323 325 327 329 329 327 324 321 317
232 231 230 228 227 226 225 224 223 223 223 225 226 227 227 228 231 234 235 237 237 238 239 242 245 249 254 258 258 256 255 255 251 245 243 244 244 245 248 248 250 259 259 248 242 247 257 266 275 281 282 280 280 283 286 288 293 300 307 313 319 325 327 326 325 321 321 325 325 321 319 319 318 318 320 322 323 324 326 328 329 328 325 321 318
236 235 233 230 228 226 225 224 223 222 222 223 224 225 225 226 228 231 233 235 238 241 241 242 243 244 245 247 251 256 262 263 256 248 245 244 245 247 249 250 255 258 246 233 238 252 259 264 272 277 276 274 277 281 281 284 290 296 301 306 313 320 324 325 324 322 324 326 323 318 317 318 318 319 320 323 325 325 325 327 327 326 325 321 318
241 238 236 232 229 226 225 224 224 224 224 224 224 225 225 226 227 227 224 222 224 229 231 233 235 239 242 245 246 250 256 258 255 252 249 246 245 248 251 255 258 252 237 234 243 253 258 264 271 273 272 272 274 276 279 283 287 292 297 303 309 315 320 325 324 323 327 329 324 320 318 318 320 322 322 323 325 325 326 327 326 325 324 322 319
241 236 235 234 232 229 228 227 226 225 225 225 225 226 227 227 226 225 222 218 218 221 226 230 233 236 241 247 249 249 252 254 254 252 250 249 250 252 253 255 253 242 232 235 245 253 258 267 272 271 269 269 271 273 276 281 285 290 295 302 308 313 318 323 323 324 329 330 324 320 318 318 320 322 321 321 323 325 325 325 325 324 323 321 319
238 233 230 230 230 230 229 228 226 226 226 226 226 226 226 225 224 223 223 224 225 228 232 237 240 239 239 242 247 249 250 252 254 255 253 253 252 250 248 250 248 239 234 239 249 257 262 267 270 269 267 268 269 272 275 279 284 289 293 298 304 310 315 319 321 323 326 325 321 318 317 317 319 321 320 319 321 323 323 324 324 323 323 322 321
236 231 227 226 226 226 226 224 224 224 224 223 222 221 220 220 221 222 224 228 232 236 239 243 247 249 249 251 254 256 254 252 253 256 255 254 251 247 246 249 249 243 240 246 253 257 261 264 267 268 268 269 270 272 275 278 283 287 291 296 301 307 312 315 315 316 318 319 319 319 317 315 317 320 320 318 319 321 323 325 324 322 322 323 323
232 229 226 222 220 219 217 215 215 215 216 215 215 214 214 215 218 222 226 231 236 241 246 250 255 259 263 266 266 263 260 255 252 252 251 250 247 245 246 250 250 245 245 250 255 257 260 264 266 267 267 268 271 273 275 278 282 286 290 295 299 303 308 310 311 312 315 317 318 318 316 314 315 317 318 316 315 317 322 325 324 322 321 322 322
222 221 220 216 213 213 211 208 207 207 208 209 209 210 212 215 218 222 227 232 238 244 251 255 258 263 270 274 271 267 264 262 262 263 261 257 253 249 248 249 248 246 248 254 259 260 262 263 264 264 265 267 270 272 274 278 282 285 289 293 297 300 305 308 309 311 313 314 316 316 315 313 313 314 315 313 311 314 320 323 323 321 319 318 319
211 210 210 208 207 207 207 205 205 205 205 206 208 209 212 215 220 225 231 238 244 250 254 257 261 267 273 274 271 269 269 269 272 275 273 267 261 258 253 249 247 249 253 257 260 262 262 263 263 264 266 268 270 273 275 279 282 285 288 291 294 298 302 304 306 307 309 311 312 313 312 311 311 311 312 311 310 312 317 320 321 320 317 316 316
204 200 198 198 200 201 201 202 203 205 205 207 208 211 215 220 226 233 239 244 249 254 258 261 267 273 276 274 272 271 272 275 278 280 276 268 260 256 254 252 252 254 256 259 261 262 263 264 265 266 268 271 273 275 277 279 282 285 288 290 291 295 299 301 303 304 306 306 307 308 308 308 307 308 310 311 310 310 314 318 319 319 317 317 317
200 195 191 190 194 196 196 197 200 202 205 208 212 217 222 228 233 238 244 248 253 258 262 265 270 275 276 276 274 268 267 272 275 277 277 275 268 261 256 255 256 258 260 263 267 269 269 268 268 268 271 274 276 278 280 282 284 286 287 289 291 293 296 298 300 302 302 303 304 304 303 301 300 301 306 310 310 310 313 316 319 319 318 317 318
196 192 189 188 190 193 194 197 200 203 207 211 216 221 226 231 237 242 249 254 257 261 265 269 274 278 280 281 279 269 263 264 265 265 267 270 271 269 263 259 260 263 266 270 273 273 271 270 269 270 273 275 277 280 281 283 286 287 287 289 291 292 294 296 298 300 301 301 300 299 298 298 298 298 302 309 311 311 312 315 318 319 318 317 318
189 186 185 185 187 190 194 198 202 206 209 212 217 221 228 235 241 246 252 256 260 264 268 273 278 282 283 283 280 273 270 269 269 267 263 262 263 267 267 266 268 270 272 274 275 273 271 270 271 272 274 275 277 279 281 283 285 287 287 289 290 290 292 294 296 299 299 296 294 295 296 297 297 295 298 307 311 310 311 315 318 319 319 320 320
185 184 184 186 187 189 193 196 201 206 209 213 220 227 234 241 246 249 254 258 261 265 270 276 281 283 284 285 282 280 281 282 282 279 272 266 265 267 269 270 272 273 273 275 276 274 273 273 273 274 275 276 278 280 281 282 284 285 286 288 288 289 291 294 296 296 295 291 291 294 294 293 294 294 296 303 308 307 308 313 318 320 321 321 321
189 189 190 191 192 192 195 198 203 209 213 219 226 231 237 242 247 251 254 258 263 269 275 281 284 283 284 287 287 286 287 287 285 284 281 276 273 273 273 273 273 272 273 274 274 274 274 274 275 276 278 279 280 281 281 282 284 284 286 288 288 289 292 294 294 293 292 291 292 293 290 289 292 293 293 298 304 306 308 314 319 322 323 323 324
194 195 196 198 197 197 201 204 207 211 217 221 225 231 235 241 248 253 257 262 269 275 279 282 283 284 286 288 288 287 287 286 285 285 284 282 280 279 278 277 275 275 275 274 274 274 274 275 276 278 279 280 280 281 281 282 284 285 286 288 288 289 292 293 292 292 292 291 291 290 287 288 290 290 290 295 301 305 308 313 318 323 325 326 327
197 197 199 202 202 200 203 206 207 211 215 217 221 228 233 239 248 257 266 273 277 280 281 281 282 284 286 287 287 287 287 286 286 286 285 285 285 284 282 281 279 278 278 277 276 275 276 276 277 278 278 279 280 280 280 282 284 284 286 287 288 290 292 291 288 288 288 288 288 288 286 286 286 284 286 292 297 302 306 311 316 322 325 327 330
198 197 199 202 202 202 205 207 208 212 216 218 223 232 238 246 255 263 270 275 277 278 281 284 286 288 290 290 290 290 289 288 288 289 289 288 288 287 285 283 281 279 279 279 278 278 277 277 277 277 278 279 280 281 283 284 285 285 286 288 289 290 290 288 287 288 288 287 287 287 286 285 283 281 282 287 292 298 305 309 313 318 321 324 329
195 196 198 200 200 202 207 209 212 218 223 226 233 244 250 256 261 265 269 272 275 278 281 285 287 289 290 290 291 291 291 291 291 292 292 291 291 289 287 286 284 282 282 281 280 280 279 278 278 279 280 281 282 284 285 285 285 285 286 287 287 288 289 288 288 289 286 283 285 287 288 287 285 282 281 283 287 295 303 308 311 314 318 321 325
197 199 202 204 205 208 215 220 223 230 236 243 251 256 258 260 264 267 268 271 275 277 280 283 286 287 288 289 291 291 292 293 293 293 293 292 292 291 290 288 286 285 284 283 282 282 282 282 283 283 284 284 285 285 285 285 286 287 288 288 287 287 288 288 289 290 288 287 291 294 292 286 280 277 277 279 282 289 298 304 306 309 312 317 321